EW7156 Weather Reports


Display with metric or nautical units.
time (UTC)temp
F
wind
direction
speed
MPH
gust
MPH
rain 1hr
in
rain 24hr
in
rain mn
in
humidity
%
barometer
mb
20260504041414 46 157 0.0 0.0 0.00 0.00 0.00 60 1119.4
20260504040415 45 157 0.0 0.0 0.00 0.00 0.00 59 1119.0
20260504035424 46 202 1.0 2.0 0.00 0.00 0.00 60 1119.0
20260504034521 46 202 0.0 2.0 0.00 0.00 0.00 60 1119.0
20260504032522 46 247 0.0 0.0 0.00 0.00 0.00 62 1119.0
20260504031620 46 247 0.0 0.0 0.00 0.00 0.00 62 1119.0
20260504030623 46 247 0.0 0.0 0.00 0.00 0.00 61 1119.2
20260504025621 47 247 0.0 0.0 0.00 0.00 0.00 59 1119.4
20260504024622 47 247 0.0 0.0 0.00 0.00 0.00 58 1119.4
20260504023623 48 247 0.0 0.0 0.00 0.00 0.00 57 1119.4
20260504021722 48 247 0.0 0.0 0.00 0.00 0.00 56 1119.4
20260504020722 48 247 0.0 0.0 0.00 0.00 0.00 56 1119.8
20260504015722 48 247 0.0 0.0 0.00 0.00 0.00 55 1119.8
20260504015622 49 247 0.0 0.0 0.00 0.00 0.00 55 1119.8
20260504014721 49 247 0.0 0.0 0.00 0.00 0.00 55 1119.8
20260504013723 49 247 0.0 0.0 0.00 0.00 0.00 54 1119.4
20260504012723 50 247 0.0 0.0 0.00 0.00 0.00 52 1119.4
20260504011725 50 247 0.0 0.0 0.00 0.00 0.00 51 1119.4
20260504005722 52 247 0.0 0.0 0.00 0.00 0.00 47 1119.4
20260504003723 53 261 0.0 1.0 0.00 0.00 0.00 45 1119.4
20260504002820 54 270 0.0 0.0 0.00 0.00 0.00 44 1119.8
20260504001822 54 275 1.0 3.0 0.00 0.00 0.00 43 1119.8
20260503235923 55 292 0.0 0.0 0.00 0.00 0.00 42 1119.8
20260503235021 56 218 0.0 3.0 0.00 0.00 0.00 41 1119.8
20260503234023 56 331 1.0 4.0 0.00 0.00 0.00 40 1119.8
20260503233022 57 122 0.0 2.0 0.00 0.00 0.00 39 1119.8
20260503232022 57 321 0.0 2.0 0.00 0.00 0.00 38 1120.0
20260503231022 58 238 3.0 6.0 0.00 0.00 0.00 38 1119.8
20260503230021 58 310 1.0 6.0 0.00 0.00 0.00 38 1120.0
20260503225022 58 261 2.0 5.0 0.00 0.00 0.00 38 1119.8
20260503224022 58 345 0.0 2.0 0.00 0.00 0.00 37 1120.0
20260503223023 58 247 2.0 4.0 0.00 0.00 0.00 37 1120.1
20260503222121 59 253 3.0 7.0 0.00 0.00 0.00 37 1120.1
20260503221122 59 257 2.0 5.0 0.00 0.00 0.00 38 1120.1
20260503215123 59 263 1.0 4.0 0.00 0.00 0.00 37 1120.1
20260503214220 59 220 1.0 2.0 0.00 0.00 0.00 37 1120.1
20260503213222 58 292 4.0 8.0 0.00 0.00 0.00 37 1120.0
20260503212221 60 326 2.0 6.0 0.00 0.00 0.00 37 1120.0
20260503211321 61 323 3.0 7.0 0.00 0.00 0.00 37 1120.0
20260503210322 60 311 2.0 5.0 0.00 0.00 0.00 38 1119.8
20260503205325 60 60 0.0 2.0 0.00 0.00 0.00 39 1120.1
20260503203422 58 246 0.0 3.0 0.00 0.00 0.00 39 1120.1
20260503202423 60 269 2.0 4.0 0.00 0.00 0.00 40 1120.5
20260503200620 59 247 3.0 7.0 0.00 0.00 0.00 38 1120.7
20260503195622 59 247 2.0 5.0 0.00 0.00 0.00 38 1120.9
20260503194623 59 321 3.0 7.0 0.00 0.00 0.00 39 1121.1
20260503193622 59 232 0.0 2.0 0.00 0.00 0.00 38 1121.3
20260503193524 59 251 3.0 8.0 0.00 0.00 0.00 38 1121.3
20260503190521 59 258 1.0 4.0 0.00 0.00 0.00 39 1121.7
20260503185522 59 314 2.0 5.0 0.00 0.00 0.00 39 1121.7
20260503184522 58 265 3.0 5.0 0.00 0.00 0.00 39 1122.0
20260503183521 58 256 2.0 6.0 0.00 0.00 0.00 42 1122.0
20260503182521 59 346 2.0 5.0 0.00 0.00 0.00 43 1122.0
20260503180523 56 285 2.0 6.0 0.00 0.00 0.00 42 1122.3
20260503175523 56 336 0.0 5.0 0.00 0.00 0.00 42 1122.5
20260503174621 57 323 2.0 4.0 0.00 0.00 0.00 45 1122.5
20260503173622 57 259 1.0 4.0 0.00 0.00 0.00 42 1122.8
20260503172624 56 233 1.0 3.0 0.00 0.00 0.00 43 1122.8
20260503171722 55 264 2.0 5.0 0.00 0.00 0.00 42 1122.8
20260503170723 54 319 2.0 5.0 0.00 0.00 0.00 41 1122.8
20260503150823 51 248 2.0 8.0 0.00 0.00 0.00 48 1124.0
20260503131021 46 268 0.0 0.0 0.00 0.00 0.00 83 1124.3
20260503120123 37 226 0.0 3.0 0.00 0.00 0.00 93 1122.8
20260503110220 32 337 0.0 0.0 0.00 0.00 0.00 94 1121.7
20260503080923 34 337 0.0 0.0 0.00 0.00 0.00 92 1121.3
20260503072221 34 337 0.0 0.0 0.00 0.00 0.00 92 1120.9
20260503071224 34 337 0.0 0.0 0.00 0.00 0.00 92 1120.9
20260503054422 34 337 0.0 0.0 0.00 0.00 0.00 90 1120.9
20260503051421 34 337 0.0 0.0 0.00 0.00 0.00 89 1120.9
20260503050422 34 337 0.0 0.0 0.00 0.00 0.00 88 1121.3
20260503045421 34 337 0.0 0.0 0.00 0.00 0.00 88 1121.3
20260503044422 34 337 0.0 0.0 0.00 0.00 0.00 88 1121.3
20260503043422 35 337 0.0 0.0 0.00 0.00 0.00 88 1121.3
20260503042424 35 337 0.0 0.0 0.00 0.00 0.00 87 1121.3